Regional Weather Roundup
Issued by NWS

Home | Current Version | Previous Version | Text Only | Print | Product List | Glossary Off
Versions: 1 2 3 4 5 6 7 8 9 10 11 12 13 14 15 16 17 18 19 20 21 22 23 24 25 26 27 28 29 30 31 32 33 34 35 36 37 38 39 40 41 42 43 44 45 46 47 48 49 50

000
ASUS45 KCYS 010110
RWRWY

WYOMING REGIONAL WEATHER ROUNDUP
NATIONAL WEATHER SERVICE CHEYENNE WY
700 PM MDT FRI JUL 31 2015

NOTE:  "FAIR" INDICATES FEW OR NO CLOUDS BELOW 12,000 FEET
WITH NO SIGNIFICANT WEATHER AND/OR OBSTRUCTIONS TO VISIBILITY.

WYZ001-010200-
YELLOWSTONE NATIONAL PARK

CITY           SKY/WX    TMP DP  RH WIND       PRES   REMARKS
LK YELLOWSTONE   N/A     73  30  20 CALM      30.43F
W YELLOWSTONE  NOT AVBL

$$
WYZ002>013-054>058-071-098>099-010200-
NORTHERN WYOMING

CITY           SKY/WX    TMP DP  RH WIND       PRES   REMARKS
JACKSON        SUNNY     81  30  16 W9        30.29F
CODY           FAIR      82  39  21 NE6       30.18S
GREYBULL       FAIR      95  29   9 N10       30.06F
WORLAND        FAIR      90  39  16 N7        30.08F
SHERIDAN       FAIR      90  39  16 SW5       30.09F
BUFFALO        FAIR      87  38  17 N10       30.18S
GILLETTE       FAIR      88  43  20 NE13      30.12F
HULETT         FAIR      82  46  28 E12       30.15F
NEWCASTLE      FAIR      82  45  26 SE14      30.13S

$$
WYZ014>020-022>026-101>103-010200-
CENTRAL WYOMING

CITY           SKY/WX    TMP DP  RH WIND       PRES   REMARKS
BIG PINEY      FAIR      81  27  14 N14       30.32F
PINEDALE       FAIR      79  21  11 NW7       30.33F
DUBOIS         FAIR      79  23  12 NW10G16   30.32F
LANDER         FAIR      86  33  15 N7        30.15F
RIVERTON       FAIR      90  25   9 N9        30.17F
CASPER         FAIR      87  25  10 N3        30.16F
DOUGLAS        FAIR      89  37  16 VRB5      30.16F

$$
WYZ021-027>030-104>119-010200-
SOUTHERN WYOMING

CITY           SKY/WX    TMP DP  RH WIND       PRES   REMARKS
EVANSTON       FAIR      82  25  12 N17       30.33F
KEMMERER       FAIR     N/A N/A N/A NW13G18   30.35F
FORT BRIDGER   CLEAR     84  21  10 NW14      30.34S
ROCK SPRINGS   FAIR      83  21  10 NW9       30.27F
DIXON          FAIR      88  23   9 CALM      30.27S
RAWLINS        FAIR      85  19   9 N10       30.28F
SARATOGA       FAIR      82  21  10 CALM      30.29F
LARAMIE        FAIR      70  46  42 SE15      30.34F
CHEYENNE       FAIR      78  48  34 E8        30.28F
TORRINGTON     FAIR      87  47  24 S9        30.13S
PINE BLUFFS    FAIR      81  46  30 E6        30.22F

$$



USA.gov is the U.S. government's official web portal to all federal, state and local government web resources and services.